Hatteras, NC

4:09 AM EDT on October 17, 2017 (GMT -0400)
Mitchell

Weather History for KHSE - December, 2012

Change the Weather History Date:

Sunday, December 16, 2012

  Actual Average Record
Temperature  
Mean Temperature 59 °F 49 °F  
Max Temperature 62 °F 56 °F 73 °F (1971)
Min Temperature 56 °F 43 °F 26 °F (1968)
Degree Days  
Heating Degree Days 6 16  
Month to date heating degree days 138 225  
Since 1 July heating degree days 575 543  
Cooling Degree Days 0 0  
Month to date cooling degree days 0 0  
Year to date cooling degree days 2090 1711  
Growing Degree Days 8 (Base 50)    
Moisture  
Dew Point 57 °F    
Average Humidity 89    
Maximum Humidity 100    
Minimum Humidity 78    
Precipitation  
Precipitation 0.31 in 0.13 in 1.74 in (2007)
Month to date precipitation 2.29 2.15  
Year to date precipitation 53.54 55.92  
Snow  
Snow 0.00 in - - ()
Month to date snowfall 0.0  
Since 1 July snowfall 0.0  
Snow Depth 0.00 in    
Sea Level Pressure  
Sea Level Pressure 30.03 in    
Wind  
Wind Speed 6 mph (WSW)    
Max Wind Speed 13 mph    
Max Gust Speed 21 mph    
Visibility 4 miles    
Events Fog , Rain    
T = Trace of Precipitation, MM = Missing Value Source: NWS Daily Summary

Daily Weather History Graph

Daily Weather History Graph

Search for Another Location

Airport or City:

Trip Planner

Search our weather history database for the weather conditions in past years. The results will help you decide how hot, cold, wet, or windy it might be!

Date:

Astronomy

Dec. 16, 2012 Rise Set
Actual Time 7:04 AM EST 4:52 PM EST
Civil Twilight 6:36 AM EST 5:20 PM EST
Nautical Twilight 6:04 AM EST 5:52 PM EST
Astronomical Twilight 5:33 AM EST 6:23 PM EST
Moon 9:42 AM EST (12/16) 8:56 PM EST (12/16)
Length of Visible Light 10h 44m
Length of Day
9h 47m
Waxing Crescent, 16% of the Moon is Illuminated
Dec 16
Waxing Crescent
Dec 20
First Quarter
Dec 28
Full
Jan 4
Last Quarter
Jan 11
New

Hourly Weather History & Observations

Time (EST) Temp. Dew Point Humidity Pressure Visibility Wind Dir Wind Speed Gust Speed Precip Events Conditions
12:51 AM 61.0 °F 55.0 °F 81% 30.10 in 10.0 mi SSW 9.2 mph - N/A   Overcast
1:51 AM 61.0 °F 55.0 °F 81% 30.10 in 10.0 mi SSW 9.2 mph - N/A   Overcast
2:51 AM 60.1 °F 55.9 °F 86% 30.08 in 10.0 mi SSW 6.9 mph - 0.00 in   Overcast
3:51 AM 61.0 °F 55.9 °F 83% 30.06 in 10.0 mi SSW 9.2 mph - N/A   Overcast
4:51 AM 62.1 °F 55.9 °F 80% 30.05 in 10.0 mi SSW 9.2 mph - N/A   Overcast
5:51 AM 61.0 °F 57.9 °F 90% 30.06 in 9.0 mi SSW 11.5 mph - 0.00 in Rain Light Rain
6:51 AM 62.1 °F 60.1 °F 93% 30.06 in 5.0 mi SW 10.4 mph - 0.01 in Rain Light Rain
7:13 AM 60.8 °F 57.2 °F 88% 30.07 in 6.0 mi WSW 10.4 mph - 0.03 in Rain Light Rain
7:36 AM 59.0 °F 57.2 °F 94% 30.07 in 3.0 mi WSW 9.2 mph - 0.03 in Rain Light Rain
7:38 AM 59.0 °F 57.2 °F 94% 30.07 in 2.5 mi WSW 9.2 mph - 0.03 in Rain Light Rain
7:45 AM 59.0 °F 57.2 °F 94% 30.07 in 1.5 mi WSW 9.2 mph - 0.06 in Rain Rain
7:49 AM 59.0 °F 57.2 °F 94% 30.08 in 2.0 mi West 8.1 mph - 0.06 in Rain Light Rain
7:51 AM 59.0 °F 57.9 °F 96% 30.08 in 2.0 mi West 8.1 mph - 0.06 in Rain Light Rain
7:55 AM 59.0 °F 57.2 °F 94% 30.08 in 1.2 mi West 6.9 mph - 0.02 in Rain Rain
8:02 AM 60.8 °F 59.0 °F 94% 30.08 in 1.0 mi West 8.1 mph 19.6 mph 0.05 in Rain Heavy Rain
8:07 AM 60.8 °F 60.8 °F 100% 30.07 in 1.5 mi West 10.4 mph 19.6 mph 0.07 in Rain Rain
8:15 AM 60.8 °F 60.8 °F 100% 30.07 in 1.2 mi WSW 10.4 mph 16.1 mph 0.08 in Rain Heavy Rain
8:27 AM 60.8 °F 59.0 °F 94% 30.07 in 1.5 mi WSW 9.2 mph - 0.14 in Rain Rain
8:32 AM 60.8 °F 60.8 °F 100% 30.07 in 2.0 mi West 9.2 mph - 0.15 in Rain Rain
8:42 AM 60.8 °F 59.0 °F 94% 30.08 in 2.5 mi WNW 6.9 mph - 0.16 in Rain Light Rain
8:51 AM 57.9 °F 57.9 °F 100% 30.09 in 1.5 mi WNW 6.9 mph - 0.18 in Rain Rain
9:00 AM 57.2 °F 57.2 °F 100% 30.09 in 3.0 mi NW 9.2 mph - 0.01 in Rain Light Rain
9:14 AM 55.4 °F 55.4 °F 100% 30.09 in 2.5 mi Variable 4.6 mph - 0.02 in Rain Light Rain
9:17 AM 55.4 °F 55.4 °F 100% 30.08 in 3.0 mi Variable 4.6 mph - 0.02 in Rain Light Rain
9:28 AM 55.4 °F 55.4 °F 100% 30.08 in 10.0 mi NNW 3.5 mph - 0.02 in   Overcast
9:51 AM 57.0 °F 55.9 °F 96% 30.09 in 10.0 mi Variable 3.5 mph - 0.02 in   Mostly Cloudy
10:51 AM 57.0 °F 55.9 °F 96% 30.05 in 10.0 mi Calm Calm - 0.01 in Rain Light Rain
11:32 AM 57.2 °F 55.4 °F 94% 30.04 in 2.5 mi Calm Calm - 0.00 in   Mostly Cloudy
11:49 AM 57.2 °F 55.4 °F 94% 30.04 in 4.0 mi West 3.5 mph - 0.00 in   Mostly Cloudy
11:51 AM 57.0 °F 55.9 °F 96% 30.04 in 5.0 mi Variable 4.6 mph - 0.00 in   Mostly Cloudy
12:02 PM 57.2 °F 57.2 °F 100% 30.04 in 5.0 mi SW 4.6 mph - N/A   Overcast
12:10 PM 57.2 °F 55.4 °F 94% 30.03 in 3.0 mi SW 4.6 mph - N/A   Overcast
12:40 PM 55.4 °F 55.4 °F 100% 30.02 in 6.0 mi SW 4.6 mph - N/A   Mostly Cloudy
12:51 PM 55.9 °F 55.0 °F 97% 30.02 in 6.0 mi SW 6.9 mph - N/A   Mostly Cloudy
1:51 PM 55.9 °F 55.9 °F 100% 30.01 in 7.0 mi WSW 4.6 mph - 0.00 in Rain Light Rain
2:11 PM 57.2 °F 55.4 °F 94% 30.02 in 6.0 mi West 3.5 mph - 0.01 in Rain Light Rain
2:26 PM 57.2 °F 55.4 °F 94% 30.00 in 5.0 mi West 3.5 mph - 0.02 in Rain Light Rain
2:51 PM 57.9 °F 57.0 °F 97% 29.99 in 2.5 mi SW 3.5 mph - 0.02 in Rain Light Rain
2:56 PM 57.2 °F 57.2 °F 100% 29.98 in 1.2 mi Calm Calm - 0.00 in Rain Light Rain
3:02 PM 57.2 °F 57.2 °F 100% 29.98 in 1.5 mi Calm Calm - 0.00 in   Overcast
3:12 PM 57.2 °F 57.2 °F 100% 29.98 in 2.0 mi Calm Calm - 0.00 in   Overcast
3:25 PM 57.2 °F 57.2 °F 100% 29.99 in 3.0 mi WNW 3.5 mph - 0.00 in   Overcast
3:35 PM 57.2 °F 57.2 °F 100% 29.99 in 1.8 mi Calm Calm - 0.00 in Rain Light Rain
3:44 PM 57.2 °F 57.2 °F 100% 29.99 in 0.8 mi Calm Calm - 0.00 in Rain Light Rain
3:51 PM 57.0 °F 57.0 °F 100% 30.00 in 0.5 mi WSW 3.5 mph - 0.00 in Fog Fog
4:07 PM 55.4 °F 55.4 °F 100% 30.00 in 0.2 mi Calm Calm - N/A Fog Fog
4:28 PM 55.4 °F 55.4 °F 100% 30.01 in 0.5 mi SW 3.5 mph - N/A Fog Fog
4:35 PM 55.4 °F 55.4 °F 100% 30.01 in 0.8 mi WSW 3.5 mph - 0.00 in Rain Light Rain
4:40 PM 55.4 °F 55.4 °F 100% 30.01 in 1.0 mi Calm Calm - 0.00 in Rain Light Rain
4:51 PM 55.9 °F 55.9 °F 100% 30.01 in 1.2 mi Calm Calm - 0.01 in Rain Light Rain
5:00 PM 55.4 °F 55.4 °F 100% 30.01 in 2.0 mi Calm Calm - 0.00 in Rain Light Rain
5:13 PM 55.4 °F 55.4 °F 100% 30.01 in 1.2 mi Calm Calm - 0.00 in   Overcast
5:24 PM 57.2 °F 55.4 °F 94% 30.01 in 0.5 mi SW 3.5 mph - 0.00 in Fog Fog
5:48 PM 57.2 °F 55.4 °F 94% 30.00 in 0.5 mi Calm Calm - 0.00 in Fog Fog
5:51 PM 57.0 °F 55.9 °F 96% 30.01 in 0.5 mi Calm Calm - 0.00 in Fog Fog
5:59 PM 57.2 °F 55.4 °F 94% 30.01 in 0.8 mi Calm Calm - N/A   Overcast
6:03 PM 57.2 °F 55.4 °F 94% 30.01 in 1.0 mi Calm Calm - N/A   Overcast
6:13 PM 57.2 °F 55.4 °F 94% 30.00 in 1.0 mi Calm Calm - N/A   Overcast
6:35 PM 57.2 °F 57.2 °F 100% 30.00 in 2.0 mi Calm Calm - N/A   Overcast
6:49 PM 57.2 °F 57.2 °F 100% 30.00 in 3.0 mi Calm Calm - 0.00 in   Mostly Cloudy
6:51 PM 57.9 °F 57.0 °F 97% 29.99 in 3.0 mi Calm Calm - 0.00 in   Mostly Cloudy
7:04 PM 57.2 °F 57.2 °F 100% 29.99 in 2.5 mi Calm Calm - N/A   Mostly Cloudy
7:23 PM 57.2 °F 57.2 °F 100% 29.98 in 1.8 mi South 4.6 mph - N/A   Mostly Cloudy
7:28 PM 57.2 °F 57.2 °F 100% 29.98 in 3.0 mi Calm Calm - N/A   Mostly Cloudy
7:51 PM 57.9 °F 57.0 °F 97% 29.97 in 5.0 mi SSW 5.8 mph - N/A   Scattered Clouds
8:51 PM 57.9 °F 57.0 °F 97% 29.96 in 10.0 mi SSW 6.9 mph - N/A   Clear
9:51 PM 59.0 °F 57.9 °F 96% 29.95 in 9.0 mi SW 3.5 mph - N/A   Partly Cloudy
10:51 PM 59.0 °F 57.9 °F 96% 29.94 in 9.0 mi SW 3.5 mph - N/A   Mostly Cloudy
11:51 PM 60.1 °F 59.0 °F 96% 29.92 in 10.0 mi WSW 4.6 mph - N/A   Mostly Cloudy